Location: StarHub Observatory
(35.2598°N, 77.5855°W)
Time: 12:40:44
(UTC-05:00)

Tiangong - Pass Details

Date: 12 December 2021
Orbit: 383 x 386 km, 41.5° (Epoch: 19 January)

Event Time Altitude Azimuth Distance (km) Brightness Sun altitude
Rises 17:33:52 0° 269° (W) 2,275 6.5 -7.3°
Reaches altitude 10° 17:36:03 10° 279° (W) 1,420 5.0 -7.7°
Maximum altitude 17:39:01 34° 347° (NNW) 658 2.2 -8.3°
Enters shadow 17:41:45 12° 53° (NE) 1,324 3.2 -8.8°
